N8DMH-13 Weather Reports


Display with metric or nautical units.
time (UTC)temp
F
wind
direction
speed
MPH
gust
MPH
rain 1hr
in
rain 24hr
in
rain mn
in
humidity
%
barometer
mb
20220118064149 26 270 2.0 3.0 0.00 0.00 0.00 80 1008.9
20220118062650 0 0.0 0.0 0.00 0.00 0.00
20220118061150 26 203 0.0 3.0 0.00 0.00 0.00 79 1008.9
20220118055649 26 225 2.0 4.0 0.00 0.00 0.00 79 1008.9
20220118054149 26 203 1.0 4.0 0.00 0.00 0.00 79 1008.9
20220118052649 26 270 0.0 4.0 0.00 0.00 0.00 78 1008.9
20220118051149 27 225 3.0 5.0 0.00 0.00 0.00 76 1008.9
20220118045649 26 225 1.0 5.0 0.00 0.00 0.00 76 1007.9
20220118044149 26 203 0.0 5.0 0.00 0.00 0.00 76 1007.9
20220118042649 26 270 4.0 5.0 0.00 0.00 0.00 76 1007.9
20220118041149 26 270 1.0 4.0 0.00 0.00 0.00 75 1007.9
20220118035649 26 270 0.0 4.0 0.00 0.00 0.00 75 1007.9
20220118034149 26 203 3.0 4.0 0.00 0.00 0.00 75 1007.9
20220118032649 26 293 2.0 4.0 0.00 0.00 0.00 76 1007.9
20220118031149 26 225 1.0 4.0 0.00 0.00 0.00 76 1007.9
20220118025649 26 248 2.0 4.0 0.00 0.00 0.00 76 1007.9
20220118024149 26 248 2.0 3.0 0.00 0.00 0.00 76 1007.9
20220118022649 26 180 1.0 4.0 0.00 0.00 0.00 76 1007.9
20220118021150 0 0.0 0.0 0.00 0.00 0.00
20220118015650 25 270 1.0 7.0 0.00 0.00 0.00 76 1007.9
20220118014149 25 270 1.0 7.0 0.00 0.00 0.00 76 1007.9
20220118012650 25 270 1.0 7.0 0.00 0.00 0.00 76 1006.9
20220118011149 25 270 1.0 7.0 0.00 0.00 0.00 76 1006.9
20220118005650 25 270 2.0 7.0 0.00 0.00 0.00 77 1006.9
20220118004149 25 203 3.0 7.0 0.00 0.00 0.00 77 1006.9
20220118002650 25 270 2.0 7.0 0.00 0.00 0.00 77 1006.9
20220118001150 25 270 2.0 6.0 0.00 0.00 0.00 77 1006.9
20220117235649 25 270 3.0 6.0 0.00 0.00 0.00 77 1006.9
20220117234149 25 270 3.0 6.0 0.00 0.00 0.00 77 1005.9
20220117232649 25 225 3.0 6.0 0.00 0.00 0.00 77 1005.9
20220117231148 25 225 2.0 6.0 0.00 0.00 0.00 76 1005.9
20220117225649 25 248 2.0 6.0 0.00 0.00 0.00 76 1005.9
20220117224148 25 225 2.0 6.0 0.00 0.00 0.00 76 1005.9
20220117222650 26 203 2.0 6.0 0.00 0.00 0.00 77 1004.9
20220117221149 26 225 3.0 6.0 0.00 0.00 0.00 75 1004.9
20220117215650 0 0.0 0.0 0.00 0.00 0.00
20220117214149 27 203 2.0 5.0 0.00 0.00 0.00 76 1004.9
20220117212649 27 225 1.0 7.0 0.00 0.00 0.00 76 1004.9
20220117211149 28 248 5.0 8.0 0.00 0.00 0.00 72 1004.9
20220117205650 28 338 3.0 8.0 0.00 0.00 0.00 71 1003.9
20220117204149 28 203 2.0 8.0 0.00 0.00 0.00 72 1003.9
20220117202649 29 270 3.0 8.0 0.00 0.00 0.00 72 1003.9
20220117201149 29 270 3.0 8.0 0.00 0.00 0.00 72 1003.9
20220117195649 29 338 2.0 10.0 0.00 0.00 0.00 72 1003.9
20220117194149 29 45 4.0 10.0 0.00 0.00 0.00 71 1003.9
20220117192649 29 315 2.0 10.0 0.00 0.00 0.00 72 1003.9
20220117191151 0 0.0 0.0 0.00 0.00 0.00
20220117185651 0 0.0 0.0 0.00 0.00 0.00
20220117184150 0 0.0 0.0 0.00 0.00 0.00
20220117182650 0 0.0 0.0 0.00 0.00 0.00
20220117181150 0 0.0 0.0 0.00 0.00 0.00
20220117175649 28 293 2.0 11.0 0.00 0.00 0.00 80 1003.9
20220117174151 0 0.0 0.0 0.00 0.00 0.00
20220117172649 28 338 2.0 11.0 0.00 0.00 0.00 80 1003.9
20220117171149 28 45 3.0 11.0 0.00 0.00 0.00 81 1003.9
20220117165650 28 360 4.0 11.0 0.00 0.00 0.00 83 1003.9
20220117164149 28 315 4.0 9.0 0.00 0.00 0.00 83 1003.9
20220117162649 28 270 3.0 9.0 0.00 0.00 0.00 83 1003.9
20220117161149 28 315 7.0 11.0 0.00 0.00 0.00 84 1002.9
20220117155649 28 315 7.0 11.0 0.00 0.00 0.00 84 1002.9
20220117154149 28 315 7.0 11.0 0.00 0.00 0.00 84 1002.9
20220117152650 28 315 4.0 11.0 0.00 0.00 0.00 85 1002.9
20220117151149 28 225 4.0 13.0 0.00 0.00 0.00 87 1002.9
20220117145651 27 68 6.0 13.0 0.00 0.00 0.00 88 1002.9
20220117144149 27 68 8.0 14.0 0.00 0.00 0.00 88 1002.9
20220117142649 27 360 2.0 14.0 0.00 0.00 0.00 89 1002.9
20220117141150 26 45 4.0 14.0 0.00 0.00 0.00 92 1002.9
20220117135649 26 23 6.0 14.0 0.00 0.00 0.00 92 1002.9
20220117134149 26 338 4.0 14.0 0.00 0.00 0.00 93 1002.9
20220117132649 0 0.0 0.0 0.00 0.00 0.00
20220117131149 26 68 5.0 10.0 0.00 0.00 0.00 91 1002.9
20220117125649 26 360 10.0 10.0 0.00 0.00 0.00 91 1001.9
20220117124149 26 45 5.0 9.0 0.00 0.00 0.00 91 1001.9
20220117122649 26 23 3.0 9.0 0.00 0.00 0.00 90 1001.9
20220117121149 26 270 4.0 9.0 0.00 0.00 0.00 90 1001.9
20220117115649 25 293 2.0 9.0 0.00 0.00 0.00 90 1001.9
20220117114149 25 293 3.0 7.0 0.00 0.00 0.00 90 1001.9
20220117112649 25 45 2.0 7.0 0.00 0.00 0.00 89 1001.9
20220117111149 24 338 2.0 7.0 0.00 0.00 0.00 87 1001.9
20220117105650 24 45 4.0 7.0 0.00 0.00 0.00 86 1001.9
20220117104150 24 23 3.0 7.0 0.00 0.00 0.00 86 1001.9
20220117102649 23 360 3.0 8.0 0.00 0.00 0.00 86 1001.9
20220117101149 23 23 0.0 8.0 0.00 0.00 0.00 85 1001.9
20220117095649 23 360 2.0 8.0 0.00 0.00 0.00 84 1001.9
20220117094149 23 23 2.0 8.0 0.00 0.00 0.00 84 1001.9
20220117092650 23 293 2.0 8.0 0.00 0.00 0.00 84 1001.9
20220117091150 0 0.0 0.0 0.00 0.00 0.00
20220117085649 23 270 0.0 3.0 0.00 0.00 0.00 89 1001.9
20220117084150 23 113 2.0 3.0 0.00 0.00 0.00 89 1001.9
20220117082650 23 135 2.0 3.0 0.00 0.00 0.00 89 1001.9
20220117081149 22 225 2.0 3.0 0.00 0.00 0.00 88 1001.9
20220117075650 22 248 2.0 3.0 0.00 0.00 0.00 88 1002.9
20220117074149 22 203 2.0 4.0 0.00 0.00 0.00 88 1002.9
20220117072649 22 225 1.0 4.0 0.00 0.00 0.00 88 1002.9
20220117071149 21 293 0.0 4.0 0.00 0.00 0.00 86 1002.9
20220117065650 21 293 0.0 4.0 0.00 0.00 0.00 86 1002.9